Time,TemperatureF,DewpointF,PressureIn,WindDirection,WindDirectionDegrees,WindSpeedMPH,WindSpeedGustMPH,Humidity,HourlyPrecipIn,Conditions,Clouds,dailyrainin,SoftwareType,DateUTC
2013-03-24 00:00:00,33.8,22.1,29.96,NNE,22,4.0,4.0,62,0.00,,,0.00,Wunderground v.1.15,2013-03-24 04:00:00,
2013-03-24 00:01:00,33.7,22.4,29.96,North,11,4.0,5.0,63,0.00,,,0.00,Wunderground v.1.15,2013-03-24 04:01:00,
2013-03-24 00:02:00,33.7,22.4,29.97,NNE,24,4.0,5.0,63,0.00,,,0.00,Wunderground v.1.15,2013-03-24 04:02:00,
2013-03-24 00:06:00,33.5,22.2,29.96,North,355,3.0,6.0,63,0.00,,,0.00,Wunderground v.1.15,2013-03-24 04:06:00,
2013-03-24 00:12:00,33.5,22.2,29.96,NNE,22,5.0,7.0,63,0.00,,,0.00,Wunderground v.1.15,2013-03-24 04:12:00,
2013-03-24 00:17:00,33.4,22.1,29.96,NNE,15,6.0,7.0,63,0.00,,,0.00,Wunderground v.1.15,2013-03-24 04:17:00,
2013-03-24 00:22:00,33.4,22.5,29.96,NNE,15,6.0,8.0,64,0.00,,,0.00,Wunderground v.1.15,2013-03-24 04:22:00,
2013-03-24 00:28:00,33.3,22.1,29.96,NNE,19,5.0,8.0,63,0.00,,,0.00,Wunderground v.1.15,2013-03-24 04:28:00,
2013-03-24 00:34:00,33.2,22.3,29.95,NNE,28,5.0,6.0,64,0.00,,,0.00,Wunderground v.1.15,2013-03-24 04:34:00,
2013-03-24 00:39:00,33.0,22.1,29.95,NNE,26,4.0,6.0,64,0.00,,,0.00,Wunderground v.1.15,2013-03-24 04:39:00,
2013-03-24 00:45:00,32.8,22.0,29.95,NNE,21,3.0,4.0,64,0.00,,,0.00,Wunderground v.1.15,2013-03-24 04:45:00,
2013-03-24 00:50:00,32.6,22.1,29.95,NNE,22,3.0,3.0,65,0.00,,,0.00,Wunderground v.1.15,2013-03-24 04:50:00,
2013-03-24 00:56:00,32.3,22.2,29.95,NNE,24,4.0,6.0,66,0.00,,,0.00,Wunderground v.1.15,2013-03-24 04:56:00,
2013-03-24 01:02:00,32.3,22.2,29.94,NNE,19,4.0,6.0,66,0.00,,,0.00,Wunderground v.1.15,2013-03-24 05:02:00,
2013-03-24 01:08:00,32.4,21.9,29.94,North,360,5.0,6.0,65,0.00,,,0.00,Wunderground v.1.15,2013-03-24 05:08:00,
2013-03-24 01:14:00,32.3,21.8,29.94,NNE,22,5.0,6.0,65,0.00,,,0.00,Wunderground v.1.15,2013-03-24 05:14:00,
2013-03-24 01:20:00,32.1,22.0,29.93,NNE,25,4.0,4.0,66,0.00,,,0.00,Wunderground v.1.15,2013-03-24 05:20:00,
2013-03-24 01:26:00,32.0,21.9,29.93,NE,37,4.0,6.0,66,0.00,,,0.00,Wunderground v.1.15,2013-03-24 05:26:00,
2013-03-24 01:31:00,32.0,21.9,29.94,NNE,13,4.0,8.0,66,0.00,,,0.00,Wunderground v.1.15,2013-03-24 05:31:00,
2013-03-24 01:37:00,32.2,22.1,29.94,North,355,4.0,8.0,66,0.00,,,0.00,Wunderground v.1.15,2013-03-24 05:37:00,
2013-03-24 01:42:00,32.2,22.1,29.94,North,5,4.0,5.0,66,0.00,,,0.00,Wunderground v.1.15,2013-03-24 05:42:00,
2013-03-24 01:48:00,32.2,21.7,29.93,NNE,24,4.0,6.0,65,0.00,,,0.00,Wunderground v.1.15,2013-03-24 05:48:00,
2013-03-24 01:54:00,32.0,21.9,29.93,NNE,26,4.0,4.0,66,0.00,,,0.00,Wunderground v.1.15,2013-03-24 05:54:00,
2013-03-24 02:00:00,31.6,21.5,29.93,NNE,24,3.0,3.0,66,0.00,,,0.00,Wunderground v.1.15,2013-03-24 06:00:00,
2013-03-24 02:06:00,31.7,22.0,29.94,North,360,3.0,4.0,67,0.00,,,0.00,Wunderground v.1.15,2013-03-24 06:06:00,
2013-03-24 02:11:00,31.9,22.2,29.95,NNW,345,3.0,4.0,67,0.00,,,0.00,Wunderground v.1.15,2013-03-24 06:11:00,
2013-03-24 02:17:00,31.9,22.2,29.95,NNW,329,4.0,6.0,67,0.00,,,0.00,Wunderground v.1.15,2013-03-24 06:17:00,
2013-03-24 02:23:00,31.8,22.1,29.95,NNW,342,4.0,4.0,67,0.00,,,0.00,Wunderground v.1.15,2013-03-24 06:23:00,
2013-03-24 02:28:00,31.7,22.0,29.95,NNW,336,3.0,5.0,67,0.00,,,0.00,Wunderground v.1.15,2013-03-24 06:28:00,
2013-03-24 02:33:00,31.8,22.1,29.95,North,360,3.0,3.0,67,0.00,,,0.00,Wunderground v.1.15,2013-03-24 06:33:00,
2013-03-24 02:39:00,31.8,21.7,29.94,North,355,3.0,3.0,66,0.00,,,0.00,Wunderground v.1.15,2013-03-24 06:39:00,
2013-03-24 02:44:00,31.9,21.8,29.93,NNE,17,2.0,5.0,66,0.00,,,0.00,Wunderground v.1.15,2013-03-24 06:44:00,
2013-03-24 02:49:00,31.6,21.5,29.93,NNE,18,2.0,5.0,66,0.00,,,0.00,Wunderground v.1.15,2013-03-24 06:49:00,
2013-03-24 02:55:00,31.5,21.8,29.93,North,360,2.0,3.0,67,0.00,,,0.00,Wunderground v.1.15,2013-03-24 06:55:00,
2013-03-24 03:01:00,31.6,21.9,29.94,NW,322,3.0,3.0,67,0.00,,,0.00,Wunderground v.1.15,2013-03-24 07:01:00,
2013-03-24 03:07:00,31.4,21.7,29.94,NW,321,3.0,4.0,67,0.00,,,0.00,Wunderground v.1.15,2013-03-24 07:07:00,
2013-03-24 03:12:00,31.2,21.9,29.94,NNW,328,3.0,4.0,68,0.00,,,0.00,Wunderground v.1.15,2013-03-24 07:12:00,
2013-03-24 03:18:00,31.4,22.1,29.94,North,360,3.0,4.0,68,0.00,,,0.00,Wunderground v.1.15,2013-03-24 07:18:00,
2013-03-24 03:24:00,31.5,21.8,29.94,NNW,340,3.0,4.0,67,0.00,,,0.00,Wunderground v.1.15,2013-03-24 07:24:00,
2013-03-24 03:30:00,31.5,21.8,29.94,North,5,2.0,3.0,67,0.00,,,0.00,Wunderground v.1.15,2013-03-24 07:30:00,
2013-03-24 03:35:00,31.6,21.5,29.94,NNE,12,3.0,5.0,66,0.00,,,0.00,Wunderground v.1.15,2013-03-24 07:35:00,
2013-03-24 03:40:00,31.6,21.5,29.94,NNE,15,3.0,3.0,66,0.00,,,0.00,Wunderground v.1.15,2013-03-24 07:40:00,
2013-03-24 03:46:00,31.6,21.9,29.95,NNW,336,3.0,6.0,67,0.00,,,0.00,Wunderground v.1.15,2013-03-24 07:46:00,
2013-03-24 03:52:00,31.7,22.0,29.95,NNW,340,3.0,4.0,67,0.00,,,0.00,Wunderground v.1.15,2013-03-24 07:52:00,
2013-03-24 03:58:00,31.7,22.0,29.95,NNW,336,3.0,4.0,67,0.00,,,0.00,Wunderground v.1.15,2013-03-24 07:58:00,
2013-03-24 04:04:00,31.6,21.9,29.94,NNW,337,3.0,4.0,67,0.00,,,0.00,Wunderground v.1.15,2013-03-24 08:04:00,
2013-03-24 04:10:00,31.6,21.5,29.94,North,355,2.0,2.0,66,0.00,,,0.00,Wunderground v.1.15,2013-03-24 08:10:00,
2013-03-24 04:15:00,31.6,21.5,29.94,North,10,2.0,4.0,66,0.00,,,0.00,Wunderground v.1.15,2013-03-24 08:15:00,
2013-03-24 04:21:00,31.5,21.4,29.94,North,355,2.0,4.0,66,0.00,,,0.00,Wunderground v.1.15,2013-03-24 08:21:00,
2013-03-24 04:27:00,31.4,21.7,29.93,NNE,16,3.0,5.0,67,0.00,,,0.00,Wunderground v.1.15,2013-03-24 08:27:00,
2013-03-24 04:32:00,31.2,21.2,29.93,NNE,24,3.0,5.0,66,0.00,,,0.00,Wunderground v.1.15,2013-03-24 08:32:00,
2013-03-24 04:38:00,31.1,21.4,29.93,North,350,2.0,5.0,67,0.00,,,0.00,Wunderground v.1.15,2013-03-24 08:38:00,
2013-03-24 04:44:00,31.0,21.3,29.94,NW,326,3.0,3.0,67,0.00,,,0.00,Wunderground v.1.15,2013-03-24 08:44:00,
2013-03-24 04:51:00,30.8,21.8,29.94,NNW,337,4.0,4.0,69,0.00,,,0.00,Wunderground v.1.15,2013-03-24 08:51:00,
2013-03-24 04:56:00,31.0,21.3,29.95,NNW,346,4.0,7.0,67,0.00,,,0.00,Wunderground v.1.15,2013-03-24 08:56:00,
2013-03-24 05:01:00,31.1,21.4,29.95,NNW,334,3.0,4.0,67,0.00,,,0.00,Wunderground v.1.15,2013-03-24 09:01:00,
2013-03-24 05:07:00,31.1,21.8,29.95,North,360,4.0,5.0,68,0.00,,,0.00,Wunderground v.1.15,2013-03-24 09:07:00,
2013-03-24 05:12:00,31.0,21.7,29.96,NW,326,3.0,4.0,68,0.00,,,0.00,Wunderground v.1.15,2013-03-24 09:12:00,
2013-03-24 05:18:00,30.8,21.5,29.96,NW,315,3.0,4.0,68,0.00,,,0.00,Wunderground v.1.15,2013-03-24 09:18:00,
2013-03-24 05:23:00,30.6,21.3,29.96,NW,320,3.0,5.0,68,0.00,,,0.00,Wunderground v.1.15,2013-03-24 09:23:00,
2013-03-24 05:28:00,30.5,21.5,29.97,NW,317,4.0,5.0,69,0.00,,,0.00,Wunderground v.1.15,2013-03-24 09:28:00,
2013-03-24 05:34:00,30.2,21.2,29.97,NW,317,4.0,4.0,69,0.00,,,0.00,Wunderground v.1.15,2013-03-24 09:34:00,
2013-03-24 05:39:00,30.2,21.6,29.97,NNW,328,3.0,5.0,70,0.00,,,0.00,Wunderground v.1.15,2013-03-24 09:39:00,
2013-03-24 05:45:00,30.3,21.7,29.96,NW,325,4.0,4.0,70,0.00,,,0.00,Wunderground v.1.15,2013-03-24 09:45:00,
2013-03-24 05:50:00,30.5,21.5,29.96,North,351,3.0,3.0,69,0.00,,,0.00,Wunderground v.1.15,2013-03-24 09:50:00,
2013-03-24 05:55:00,30.7,21.4,29.96,NW,326,3.0,4.0,68,0.00,,,0.00,Wunderground v.1.15,2013-03-24 09:55:00,
2013-03-24 06:00:00,30.8,21.5,29.95,NW,326,3.0,4.0,68,0.00,,,0.00,Wunderground v.1.15,2013-03-24 10:00:00,
2013-03-24 06:06:00,30.8,21.1,29.95,NNE,21,3.0,5.0,67,0.00,,,0.00,Wunderground v.1.15,2013-03-24 10:06:00,
2013-03-24 06:12:00,30.7,21.0,29.94,NNE,17,2.0,3.0,67,0.00,,,0.00,Wunderground v.1.15,2013-03-24 10:12:00,
2013-03-24 06:18:00,30.7,21.4,29.94,NNE,18,2.0,4.0,68,0.00,,,0.00,Wunderground v.1.15,2013-03-24 10:18:00,
2013-03-24 06:23:00,30.7,21.0,29.94,NNE,18,3.0,3.0,67,0.00,,,0.00,Wunderground v.1.15,2013-03-24 10:23:00,
2013-03-24 06:29:00,30.6,21.3,29.95,North,351,2.0,3.0,68,0.00,,,0.00,Wunderground v.1.15,2013-03-24 10:29:00,
2013-03-24 06:35:00,30.6,21.3,29.95,NNW,331,2.0,4.0,68,0.00,,,0.00,Wunderground v.1.15,2013-03-24 10:35:00,
2013-03-24 06:41:00,30.5,21.5,29.95,NNW,342,3.0,3.0,69,0.00,,,0.00,Wunderground v.1.15,2013-03-24 10:41:00,
2013-03-24 06:47:00,30.5,21.2,29.94,North,360,2.0,3.0,68,0.00,,,0.00,Wunderground v.1.15,2013-03-24 10:47:00,
2013-03-24 06:53:00,30.5,21.5,29.95,North,360,2.0,2.0,69,0.00,,,0.00,Wunderground v.1.15,2013-03-24 10:53:00,
2013-03-24 06:59:00,30.5,21.5,29.95,North,360,2.0,3.0,69,0.00,,,0.00,Wunderground v.1.15,2013-03-24 10:59:00,
2013-03-24 07:05:00,30.5,21.5,29.96,NNW,342,2.0,3.0,69,0.00,,,0.00,Wunderground v.1.15,2013-03-24 11:05:00,
2013-03-24 07:10:00,30.4,21.4,29.96,NNW,330,3.0,4.0,69,0.00,,,0.00,Wunderground v.1.15,2013-03-24 11:10:00,
2013-03-24 07:16:00,30.3,21.7,29.96,NNW,329,3.0,4.0,70,0.00,,,0.00,Wunderground v.1.15,2013-03-24 11:16:00,
2013-03-24 07:21:00,30.3,21.7,29.95,North,360,3.0,3.0,70,0.00,,,0.00,Wunderground v.1.15,2013-03-24 11:21:00,
2013-03-24 07:27:00,30.5,21.5,29.95,North,355,3.0,3.0,69,0.00,,,0.00,Wunderground v.1.15,2013-03-24 11:27:00,
2013-03-24 07:32:00,30.6,22.0,29.96,North,360,2.0,2.0,70,0.00,,,0.00,Wunderground v.1.15,2013-03-24 11:32:00,
2013-03-24 07:38:00,30.8,21.8,29.96,North,351,2.0,3.0,69,0.00,,,0.00,Wunderground v.1.15,2013-03-24 11:38:00,
2013-03-24 07:44:00,30.9,21.9,29.96,North,5,2.0,3.0,69,0.00,,,0.00,Wunderground v.1.15,2013-03-24 11:44:00,
2013-03-24 07:49:00,31.0,21.7,29.96,NNW,344,3.0,4.0,68,0.00,,,0.00,Wunderground v.1.15,2013-03-24 11:49:00,
2013-03-24 07:54:00,31.1,22.1,29.96,North,355,3.0,3.0,69,0.00,,,0.00,Wunderground v.1.15,2013-03-24 11:54:00,
2013-03-24 08:00:00,31.1,21.8,29.95,NNE,17,3.0,3.0,68,0.00,,,0.00,Wunderground v.1.15,2013-03-24 12:00:00,
2013-03-24 08:05:00,31.1,21.8,29.96,North,355,2.0,3.0,68,0.00,,,0.00,Wunderground v.1.15,2013-03-24 12:05:00,
2013-03-24 08:11:00,31.2,22.2,29.96,North,10,2.0,3.0,69,0.00,,,0.00,Wunderground v.1.15,2013-03-24 12:11:00,
2013-03-24 08:17:00,31.2,21.9,29.96,NNE,14,3.0,4.0,68,0.00,,,0.00,Wunderground v.1.15,2013-03-24 12:17:00,
2013-03-24 08:22:00,31.2,22.2,29.96,NNE,24,3.0,5.0,69,0.00,,,0.00,Wunderground v.1.15,2013-03-24 12:22:00,
2013-03-24 08:27:00,31.4,22.4,29.96,North,351,3.0,5.0,69,0.00,,,0.00,Wunderground v.1.15,2013-03-24 12:27:00,
2013-03-24 08:33:00,31.5,22.5,29.96,NNE,26,3.0,5.0,69,0.00,,,0.00,Wunderground v.1.15,2013-03-24 12:33:00,
2013-03-24 08:38:00,31.8,22.4,29.96,NNE,30,3.0,5.0,68,0.00,,,0.00,Wunderground v.1.15,2013-03-24 12:38:00,
2013-03-24 08:44:00,32.1,22.7,29.96,NE,35,3.0,5.0,68,0.00,,,0.00,Wunderground v.1.15,2013-03-24 12:44:00,
2013-03-24 08:50:00,32.2,22.5,29.95,NE,41,4.0,4.0,67,0.00,,,0.00,Wunderground v.1.15,2013-03-24 12:50:00,
2013-03-24 08:57:00,32.5,23.1,29.94,NNE,32,4.0,5.0,68,0.00,,,0.00,Wunderground v.1.15,2013-03-24 12:57:00,
2013-03-24 09:03:00,32.6,22.8,29.94,ENE,59,4.0,7.0,67,0.00,,,0.00,Wunderground v.1.15,2013-03-24 13:03:00,
2013-03-24 09:08:00,32.8,23.0,29.94,NNE,28,5.0,7.0,67,0.00,,,0.00,Wunderground v.1.15,2013-03-24 13:08:00,
2013-03-24 09:14:00,33.0,22.9,29.93,NE,36,5.0,6.0,66,0.00,,,0.00,Wunderground v.1.15,2013-03-24 13:14:00,
2013-03-24 09:19:00,33.2,23.4,29.93,NE,44,4.0,7.0,67,0.00,,,0.00,Wunderground v.1.15,2013-03-24 13:19:00,
2013-03-24 09:24:00,33.5,23.4,29.94,NNE,32,4.0,6.0,66,0.00,,,0.00,Wunderground v.1.15,2013-03-24 13:24:00,
2013-03-24 09:29:00,33.7,23.2,29.94,NE,53,4.0,9.0,65,0.00,,,0.00,Wunderground v.1.15,2013-03-24 13:29:00,
2013-03-24 09:35:00,34.1,23.6,29.93,NE,49,4.0,8.0,65,0.00,,,0.00,Wunderground v.1.15,2013-03-24 13:35:00,
2013-03-24 09:40:00,34.4,23.8,29.93,NE,34,4.0,4.0,65,0.00,,,0.00,Wunderground v.1.15,2013-03-24 13:40:00,
2013-03-24 09:46:00,34.8,23.9,29.92,ENE,69,5.0,14.0,64,0.00,,,0.00,Wunderground v.1.15,2013-03-24 13:46:00,
2013-03-24 09:51:00,34.7,23.8,29.91,NE,53,7.0,8.0,64,0.00,,,0.00,Wunderground v.1.15,2013-03-24 13:51:00,
2013-03-24 09:57:00,35.0,24.0,29.91,NE,54,7.0,11.0,64,0.00,,,0.00,Wunderground v.1.15,2013-03-24 13:57:00,
2013-03-24 10:02:00,35.5,24.5,29.91,ENE,65,6.0,7.0,64,0.00,,,0.00,Wunderground v.1.15,2013-03-24 14:02:00,
2013-03-24 10:07:00,35.9,24.1,29.91,ENE,67,6.0,10.0,62,0.00,,,0.00,Wunderground v.1.15,2013-03-24 14:07:00,
2013-03-24 10:12:00,35.8,23.3,29.91,ENE,76,8.0,12.0,60,0.00,,,0.00,Wunderground v.1.15,2013-03-24 14:12:00,
2013-03-24 10:17:00,35.6,23.5,29.91,ENE,62,10.0,13.0,61,0.00,,,0.00,Wunderground v.1.15,2013-03-24 14:17:00,
2013-03-24 10:23:00,35.7,23.6,29.90,East,83,10.0,13.0,61,0.00,,,0.00,Wunderground v.1.15,2013-03-24 14:23:00,
2013-03-24 10:28:00,35.9,23.7,29.91,East,86,9.0,13.0,61,0.00,,,0.00,Wunderground v.1.15,2013-03-24 14:28:00,
2013-03-24 10:33:00,36.0,23.0,29.91,ENE,76,8.0,10.0,59,0.00,,,0.00,Wunderground v.1.15,2013-03-24 14:33:00,
2013-03-24 10:39:00,36.0,23.8,29.90,ENE,76,10.0,13.0,61,0.00,,,0.00,Wunderground v.1.15,2013-03-24 14:39:00,
2013-03-24 10:44:00,36.3,23.7,29.90,ENE,75,10.0,11.0,60,0.00,,,0.00,Wunderground v.1.15,2013-03-24 14:44:00,
2013-03-24 10:51:00,36.2,23.6,29.90,ENE,61,10.0,10.0,60,0.00,,,0.00,Wunderground v.1.15,2013-03-24 14:51:00,
2013-03-24 10:56:00,36.3,23.7,29.89,East,80,9.0,13.0,60,0.00,,,0.00,Wunderground v.1.15,2013-03-24 14:56:00,
2013-03-24 11:02:00,36.1,23.5,29.88,East,81,10.0,13.0,60,0.00,,,0.00,Wunderground v.1.15,2013-03-24 15:02:00,
2013-03-24 11:07:00,36.4,24.6,29.88,NE,54,9.0,13.0,62,0.00,,,0.00,Wunderground v.1.15,2013-03-24 15:07:00,
2013-03-24 11:13:00,37.1,24.5,29.88,ENE,60,6.0,8.0,60,0.00,,,0.00,Wunderground v.1.15,2013-03-24 15:13:00,
2013-03-24 11:19:00,37.4,24.4,29.87,NE,49,7.0,11.0,59,0.00,,,0.00,Wunderground v.1.15,2013-03-24 15:19:00,
2013-03-24 11:24:00,37.5,24.5,29.87,East,80,7.0,8.0,59,0.00,,,0.00,Wunderground v.1.15,2013-03-24 15:24:00,
2013-03-24 11:29:00,37.6,24.1,29.86,NE,51,6.0,14.0,58,0.00,,,0.00,Wunderground v.1.15,2013-03-24 15:29:00,
2013-03-24 11:34:00,37.4,24.0,29.86,East,88,7.0,10.0,58,0.00,,,0.00,Wunderground v.1.15,2013-03-24 15:34:00,
2013-03-24 11:40:00,37.1,24.1,29.86,East,93,9.0,9.0,59,0.00,,,0.00,Wunderground v.1.15,2013-03-24 15:40:00,
2013-03-24 11:45:00,37.3,24.3,29.86,East,87,8.0,9.0,59,0.00,,,0.00,Wunderground v.1.15,2013-03-24 15:45:00,
2013-03-24 11:51:00,37.7,24.2,29.86,ENE,58,6.0,8.0,58,0.00,,,0.00,Wunderground v.1.15,2013-03-24 15:51:00,
2013-03-24 11:56:00,38.0,24.9,29.86,NE,53,7.0,8.0,59,0.00,,,0.00,Wunderground v.1.15,2013-03-24 15:56:00,
2013-03-24 12:01:00,38.2,24.3,29.84,ENE,73,6.0,15.0,57,0.00,,,0.00,Wunderground v.1.15,2013-03-24 16:01:00,
2013-03-24 12:07:00,38.1,24.2,29.85,East,96,8.0,15.0,57,0.00,,,0.00,Wunderground v.1.15,2013-03-24 16:07:00,
2013-03-24 12:13:00,38.2,24.3,29.85,East,93,7.0,9.0,57,0.00,,,0.00,Wunderground v.1.15,2013-03-24 16:13:00,
2013-03-24 12:19:00,38.4,24.5,29.86,ENE,78,7.0,11.0,57,0.00,,,0.00,Wunderground v.1.15,2013-03-24 16:19:00,
2013-03-24 12:24:00,38.3,24.4,29.85,East,89,7.0,11.0,57,0.00,,,0.00,Wunderground v.1.15,2013-03-24 16:24:00,
2013-03-24 12:30:00,38.5,24.1,29.85,ESE,109,6.0,7.0,56,0.00,,,0.00,Wunderground v.1.15,2013-03-24 16:30:00,
2013-03-24 12:36:00,38.7,24.8,29.84,ENE,77,5.0,8.0,57,0.00,,,0.00,Wunderground v.1.15,2013-03-24 16:36:00,
2013-03-24 12:42:00,38.8,24.9,29.84,ENE,70,5.0,8.0,57,0.00,,,0.00,Wunderground v.1.15,2013-03-24 16:42:00,
2013-03-24 12:47:00,39.1,24.7,29.84,East,90,4.0,8.0,56,0.00,,,0.00,Wunderground v.1.15,2013-03-24 16:47:00,
2013-03-24 12:53:00,39.5,24.7,29.83,ENE,63,2.0,5.0,55,0.00,,,0.00,Wunderground v.1.15,2013-03-24 16:53:00,
2013-03-24 12:59:00,39.9,24.6,29.83,NE,50,3.0,6.0,54,0.00,,,0.00,Wunderground v.1.15,2013-03-24 16:59:00,
2013-03-24 13:05:00,39.8,24.0,29.82,East,93,4.0,6.0,53,0.00,,,0.00,Wunderground v.1.15,2013-03-24 17:05:00,
2013-03-24 13:10:00,40.1,24.3,29.82,ENE,65,3.0,3.0,53,0.00,,,0.00,Wunderground v.1.15,2013-03-24 17:10:00,
2013-03-24 13:16:00,40.3,25.0,29.81,East,92,3.0,8.0,54,0.00,,,0.00,Wunderground v.1.15,2013-03-24 17:16:00,
2013-03-24 13:22:00,39.9,24.6,29.80,ESE,107,5.0,5.0,54,0.00,,,0.00,Wunderground v.1.15,2013-03-24 17:22:00,
2013-03-24 13:28:00,40.0,24.7,29.79,SE,130,4.0,5.0,54,0.00,,,0.00,Wunderground v.1.15,2013-03-24 17:28:00,
2013-03-24 13:34:00,40.2,24.4,29.78,East,98,5.0,8.0,53,0.00,,,0.00,Wunderground v.1.15,2013-03-24 17:34:00,
2013-03-24 13:40:00,40.3,25.0,29.77,ESE,105,4.0,4.0,54,0.00,,,0.00,Wunderground v.1.15,2013-03-24 17:40:00,
2013-03-24 13:46:00,40.5,24.7,29.77,ENE,76,5.0,13.0,53,0.00,,,0.00,Wunderground v.1.15,2013-03-24 17:46:00,
2013-03-24 13:52:00,40.2,23.5,29.76,ENE,72,6.0,7.0,51,0.00,,,0.00,Wunderground v.1.15,2013-03-24 17:52:00,
2013-03-24 13:58:00,40.4,24.6,29.76,East,99,6.0,11.0,53,0.00,,,0.00,Wunderground v.1.15,2013-03-24 17:58:00,
2013-03-24 14:04:00,40.4,23.7,29.76,ESE,102,6.0,9.0,51,0.00,,,0.00,Wunderground v.1.15,2013-03-24 18:04:00,
2013-03-24 14:09:00,40.6,24.3,29.76,SE,146,5.0,9.0,52,0.00,,,0.00,Wunderground v.1.15,2013-03-24 18:09:00,
2013-03-24 14:15:00,41.0,24.2,29.76,SSE,155,4.0,5.0,51,0.00,,,0.00,Wunderground v.1.15,2013-03-24 18:15:00,
2013-03-24 14:21:00,41.1,23.9,29.76,ESE,107,3.0,5.0,50,0.00,,,0.00,Wunderground v.1.15,2013-03-24 18:21:00,
2013-03-24 14:26:00,41.1,23.9,29.76,ENE,73,4.0,7.0,50,0.00,,,0.00,Wunderground v.1.15,2013-03-24 18:26:00,
2013-03-24 14:32:00,40.9,23.7,29.76,East,84,4.0,4.0,50,0.00,,,0.00,Wunderground v.1.15,2013-03-24 18:32:00,
2013-03-24 14:40:00,41.0,24.2,29.75,East,88,3.0,3.0,51,0.00,,,0.00,Wunderground v.1.15,2013-03-24 18:40:00,
2013-03-24 14:45:00,41.1,24.3,29.75,East,84,2.0,3.0,51,0.00,,,0.00,Wunderground v.1.15,2013-03-24 18:45:00,
2013-03-24 14:51:00,41.2,23.5,29.74,ESE,106,2.0,2.0,49,0.00,,,0.00,Wunderground v.1.15,2013-03-24 18:51:00,
2013-03-24 14:56:00,41.4,23.6,29.73,SSE,156,3.0,5.0,49,0.00,,,0.00,Wunderground v.1.15,2013-03-24 18:56:00,
2013-03-24 15:02:00,41.5,24.2,29.73,ESE,107,3.0,7.0,50,0.00,,,0.00,Wunderground v.1.15,2013-03-24 19:02:00,
2013-03-24 15:07:00,41.0,23.8,29.73,SE,137,4.0,7.0,50,0.00,,,0.00,Wunderground v.1.15,2013-03-24 19:07:00,
2013-03-24 15:13:00,41.1,24.3,29.72,East,84,3.0,8.0,51,0.00,,,0.00,Wunderground v.1.15,2013-03-24 19:13:00,
2013-03-24 15:18:00,40.9,24.1,29.72,ENE,76,5.0,8.0,51,0.00,,,0.00,Wunderground v.1.15,2013-03-24 19:18:00,
2013-03-24 15:24:00,40.9,24.6,29.72,ESE,106,5.0,7.0,52,0.00,,,0.00,Wunderground v.1.15,2013-03-24 19:24:00,
2013-03-24 15:29:00,40.8,23.6,29.72,East,80,4.0,7.0,50,0.00,,,0.00,Wunderground v.1.15,2013-03-24 19:29:00,
2013-03-24 15:35:00,40.9,24.1,29.71,ENE,70,2.0,3.0,51,0.00,,,0.00,Wunderground v.1.15,2013-03-24 19:35:00,
2013-03-24 15:40:00,41.1,24.3,29.71,East,98,2.0,2.0,51,0.00,,,0.00,Wunderground v.1.15,2013-03-24 19:40:00,
2013-03-24 15:46:00,41.2,24.9,29.71,ESE,117,2.0,5.0,52,0.00,,,0.00,Wunderground v.1.15,2013-03-24 19:46:00,
2013-03-24 15:51:00,41.4,24.1,29.71,East,94,3.0,3.0,50,0.00,,,0.00,Wunderground v.1.15,2013-03-24 19:51:00,
2013-03-24 15:56:00,41.4,24.1,29.71,ESE,117,3.0,5.0,50,0.00,,,0.00,Wunderground v.1.15,2013-03-24 19:56:00,
2013-03-24 16:02:00,41.5,24.7,29.71,East,88,2.0,5.0,51,0.00,,,0.00,Wunderground v.1.15,2013-03-24 20:02:00,
2013-03-24 16:08:00,41.5,25.2,29.70,ENE,61,2.0,5.0,52,0.00,,,0.00,Wunderground v.1.15,2013-03-24 20:08:00,
2013-03-24 16:14:00,41.4,23.6,29.71,ENE,71,3.0,4.0,49,0.00,,,0.00,Wunderground v.1.15,2013-03-24 20:14:00,
2013-03-24 16:20:00,41.4,24.6,29.70,ENE,73,2.0,5.0,51,0.00,,,0.00,Wunderground v.1.15,2013-03-24 20:20:00,
2013-03-24 16:26:00,41.4,25.1,29.70,NE,53,2.0,5.0,52,0.00,,,0.00,Wunderground v.1.15,2013-03-24 20:26:00,
2013-03-24 16:31:00,41.4,25.1,29.71,NE,49,2.0,3.0,52,0.00,,,0.00,Wunderground v.1.15,2013-03-24 20:31:00,
2013-03-24 16:37:00,41.4,24.6,29.71,NE,55,2.0,3.0,51,0.00,,,0.00,Wunderground v.1.15,2013-03-24 20:37:00,
2013-03-24 16:43:00,41.2,23.9,29.71,NE,36,2.0,4.0,50,0.00,,,0.00,Wunderground v.1.15,2013-03-24 20:43:00,
2013-03-24 16:49:00,41.1,24.8,29.70,NE,49,2.0,4.0,52,0.00,,,0.00,Wunderground v.1.15,2013-03-24 20:49:00,
2013-03-24 16:54:00,41.1,23.9,29.70,ENE,74,3.0,4.0,50,0.00,,,0.00,Wunderground v.1.15,2013-03-24 20:54:00,
2013-03-24 16:59:00,41.0,23.3,29.70,ENE,76,2.0,4.0,49,0.00,,,0.00,Wunderground v.1.15,2013-03-24 20:59:00,
2013-03-24 17:05:00,41.0,23.3,29.70,ENE,73,2.0,3.0,49,0.00,,,0.00,Wunderground v.1.15,2013-03-24 21:05:00,
2013-03-24 17:11:00,41.0,24.2,29.70,ENE,73,1.0,1.0,51,0.00,,,0.00,Wunderground v.1.15,2013-03-24 21:11:00,
2013-03-24 17:17:00,41.1,24.3,29.69,ENE,73,1.0,2.0,51,0.00,,,0.00,Wunderground v.1.15,2013-03-24 21:17:00,
2013-03-24 17:22:00,41.1,23.4,29.69,ENE,72,2.0,2.0,49,0.00,,,0.00,Wunderground v.1.15,2013-03-24 21:22:00,
2013-03-24 17:28:00,41.0,23.8,29.69,NE,55,3.0,4.0,50,0.00,,,0.00,Wunderground v.1.15,2013-03-24 21:28:00,
2013-03-24 17:33:00,40.9,23.7,29.69,ENE,71,3.0,4.0,50,0.00,,,0.00,Wunderground v.1.15,2013-03-24 21:33:00,
2013-03-24 17:38:00,40.9,23.7,29.68,ENE,61,4.0,7.0,50,0.00,,,0.00,Wunderground v.1.15,2013-03-24 21:38:00,
2013-03-24 17:44:00,40.8,24.1,29.68,ENE,71,5.0,7.0,51,0.00,,,0.00,Wunderground v.1.15,2013-03-24 21:44:00,
2013-03-24 17:49:00,40.7,23.5,29.68,ENE,74,5.0,7.0,50,0.00,,,0.00,Wunderground v.1.15,2013-03-24 21:49:00,
2013-03-24 17:54:00,40.7,23.5,29.68,ENE,70,5.0,5.0,50,0.00,,,0.00,Wunderground v.1.15,2013-03-24 21:54:00,
2013-03-24 17:59:00,40.7,24.0,29.68,ENE,74,4.0,7.0,51,0.00,,,0.00,Wunderground v.1.15,2013-03-24 21:59:00,
2013-03-24 18:05:00,40.6,23.4,29.69,ENE,74,3.0,4.0,50,0.00,,,0.00,Wunderground v.1.15,2013-03-24 22:05:00,
2013-03-24 18:11:00,40.6,24.3,29.69,ENE,74,1.0,2.0,52,0.00,,,0.00,Wunderground v.1.15,2013-03-24 22:11:00,
2013-03-24 18:17:00,40.6,24.3,29.69,ENE,74,0.0,2.0,52,0.00,,,0.00,Wunderground v.1.15,2013-03-24 22:17:00,
2013-03-24 18:23:00,40.5,23.8,29.68,ENE,74,1.0,2.0,51,0.00,,,0.00,Wunderground v.1.15,2013-03-24 22:23:00,
2013-03-24 18:30:00,40.5,24.2,29.68,ENE,74,1.0,2.0,52,0.00,,,0.00,Wunderground v.1.15,2013-03-24 22:30:00,
2013-03-24 18:35:00,40.4,23.7,29.68,ENE,74,0.0,1.0,51,0.00,,,0.00,Wunderground v.1.15,2013-03-24 22:35:00,
2013-03-24 18:41:00,40.4,23.7,29.69,ENE,74,0.0,1.0,51,0.00,,,0.00,Wunderground v.1.15,2013-03-24 22:41:00,
2013-03-24 18:47:00,40.4,23.7,29.69,ENE,74,0.0,1.0,51,0.00,,,0.00,Wunderground v.1.15,2013-03-24 22:47:00,
2013-03-24 18:52:00,40.4,23.7,29.69,ENE,74,0.0,0.0,51,0.00,,,0.00,Wunderground v.1.15,2013-03-24 22:52:00,
2013-03-24 18:58:00,40.4,23.7,29.69,ENE,74,0.0,0.0,51,0.00,,,0.00,Wunderground v.1.15,2013-03-24 22:58:00,
2013-03-24 19:04:00,40.4,24.6,29.69,ENE,74,0.0,0.0,53,0.00,,,0.00,Wunderground v.1.15,2013-03-24 23:04:00,
2013-03-24 19:09:00,40.4,24.1,29.69,ENE,74,0.0,0.0,52,0.00,,,0.00,Wunderground v.1.15,2013-03-24 23:09:00,
2013-03-24 19:15:00,40.3,24.1,29.69,ENE,74,0.0,1.0,52,0.00,,,0.00,Wunderground v.1.15,2013-03-24 23:15:00,
2013-03-24 19:20:00,40.2,24.0,29.69,ENE,74,0.0,0.0,52,0.00,,,0.00,Wunderground v.1.15,2013-03-24 23:20:00,
2013-03-24 19:25:00,40.2,24.4,29.69,ENE,74,0.0,0.0,53,0.00,,,0.00,Wunderground v.1.15,2013-03-24 23:25:00,
2013-03-24 19:31:00,40.1,25.6,29.70,ENE,74,0.0,0.0,56,0.00,,,0.00,Wunderground v.1.15,2013-03-24 23:31:00,
2013-03-24 19:36:00,40.1,25.6,29.70,ENE,74,0.0,0.0,56,0.00,,,0.00,Wunderground v.1.15,2013-03-24 23:36:00,
2013-03-24 19:41:00,40.1,25.6,29.70,ENE,74,0.0,0.0,56,0.00,,,0.00,Wunderground v.1.15,2013-03-24 23:41:00,
2013-03-24 19:47:00,40.0,24.7,29.70,ENE,74,0.0,2.0,54,0.00,,,0.00,Wunderground v.1.15,2013-03-24 23:47:00,
2013-03-24 19:52:00,39.8,24.5,29.70,ENE,74,0.0,0.0,54,0.00,,,0.00,Wunderground v.1.15,2013-03-24 23:52:00,
2013-03-24 19:58:00,39.7,24.8,29.70,ENE,74,0.0,1.0,55,0.00,,,0.00,Wunderground v.1.15,2013-03-24 23:58:00,
2013-03-24 20:03:00,39.7,25.7,29.70,East,94,0.0,1.0,57,0.00,,,0.00,Wunderground v.1.15,2013-03-25 00:03:00,
2013-03-24 20:09:00,39.6,25.2,29.71,ESE,103,1.0,1.0,56,0.00,,,0.00,Wunderground v.1.15,2013-03-25 00:09:00,
2013-03-24 20:14:00,39.6,25.2,29.70,ESE,104,1.0,1.0,56,0.00,,,0.00,Wunderground v.1.15,2013-03-25 00:14:00,
2013-03-24 20:20:00,39.5,24.7,29.71,ESE,107,1.0,1.0,55,0.00,,,0.00,Wunderground v.1.15,2013-03-25 00:20:00,
2013-03-24 20:25:00,39.5,25.1,29.70,ESE,109,1.0,2.0,56,0.00,,,0.00,Wunderground v.1.15,2013-03-25 00:25:00,
2013-03-24 20:31:00,39.5,25.5,29.70,ESE,109,1.0,2.0,57,0.00,,,0.00,Wunderground v.1.15,2013-03-25 00:31:00,
2013-03-24 20:37:00,39.4,25.8,29.70,SE,127,1.0,2.0,58,0.00,,,0.00,Wunderground v.1.15,2013-03-25 00:37:00,
2013-03-24 20:43:00,39.2,26.1,29.70,SSW,205,2.0,4.0,59,0.00,,,0.00,Wunderground v.1.15,2013-03-25 00:43:00,
2013-03-24 20:49:00,39.0,26.3,29.70,SSW,202,3.0,4.0,60,0.00,,,0.00,Wunderground v.1.15,2013-03-25 00:49:00,
2013-03-24 20:55:00,38.8,26.5,29.70,SW,217,3.0,4.0,61,0.00,,,0.00,Wunderground v.1.15,2013-03-25 00:55:00,
2013-03-24 21:01:00,38.6,26.3,29.70,SW,224,3.0,4.0,61,0.00,,,0.00,Wunderground v.1.15,2013-03-25 01:01:00,
2013-03-24 21:07:00,38.4,26.5,29.70,SSW,203,3.0,5.0,62,0.00,,,0.00,Wunderground v.1.15,2013-03-25 01:07:00,
2013-03-24 21:13:00,38.3,26.4,29.70,SW,226,3.0,4.0,62,0.00,,,0.00,Wunderground v.1.15,2013-03-25 01:13:00,
2013-03-24 21:18:00,38.2,26.3,29.70,SW,219,3.0,4.0,62,0.00,,,0.00,Wunderground v.1.15,2013-03-25 01:18:00,
2013-03-24 21:23:00,38.1,26.2,29.70,SW,223,3.0,4.0,62,0.00,,,0.00,Wunderground v.1.15,2013-03-25 01:23:00,
2013-03-24 21:28:00,38.0,26.1,29.70,SW,227,3.0,5.0,62,0.00,,,0.00,Wunderground v.1.15,2013-03-25 01:28:00,
2013-03-24 21:33:00,37.9,26.4,29.70,SW,232,3.0,4.0,63,0.00,,,0.00,Wunderground v.1.15,2013-03-25 01:33:00,
2013-03-24 21:39:00,37.9,26.0,29.70,SW,234,3.0,5.0,62,0.00,,,0.00,Wunderground v.1.15,2013-03-25 01:39:00,
2013-03-24 21:45:00,37.8,25.9,29.70,WSW,238,3.0,4.0,62,0.00,,,0.00,Wunderground v.1.15,2013-03-25 01:45:00,
2013-03-24 21:51:00,37.8,25.9,29.69,SW,232,3.0,3.0,62,0.00,,,0.00,Wunderground v.1.15,2013-03-25 01:51:00,
2013-03-24 21:56:00,37.7,25.8,29.69,SW,232,2.0,3.0,62,0.00,,,0.00,Wunderground v.1.15,2013-03-25 01:56:00,
2013-03-24 22:01:00,37.7,25.8,29.68,SW,232,1.0,1.0,62,0.00,,,0.00,Wunderground v.1.15,2013-03-25 02:01:00,
2013-03-24 22:06:00,37.6,25.7,29.68,SW,232,1.0,1.0,62,0.00,,,0.00,Wunderground v.1.15,2013-03-25 02:06:00,
2013-03-24 22:12:00,37.6,26.5,29.67,SW,232,1.0,1.0,64,0.00,,,0.00,Wunderground v.1.15,2013-03-25 02:12:00,
2013-03-24 22:18:00,37.5,26.4,29.67,SW,232,0.0,1.0,64,0.00,,,0.00,Wunderground v.1.15,2013-03-25 02:18:00,
2013-03-24 22:23:00,37.4,26.3,29.67,SE,130,1.0,4.0,64,0.00,,,0.00,Wunderground v.1.15,2013-03-25 02:23:00,
2013-03-24 22:29:00,37.3,26.2,29.66,South,174,3.0,5.0,64,0.00,,,0.00,Wunderground v.1.15,2013-03-25 02:29:00,
2013-03-24 22:35:00,37.1,26.4,29.66,SSE,160,3.0,6.0,65,0.00,,,0.00,Wunderground v.1.15,2013-03-25 02:35:00,
2013-03-24 22:41:00,37.0,26.7,29.66,SSE,163,3.0,3.0,66,0.00,,,0.00,Wunderground v.1.15,2013-03-25 02:41:00,
2013-03-24 22:47:00,36.9,27.0,29.66,SSE,160,4.0,7.0,67,0.00,,,0.00,Wunderground v.1.15,2013-03-25 02:47:00,
2013-03-24 22:52:00,36.7,27.1,29.67,SSE,157,3.0,4.0,68,0.00,,,0.00,Wunderground v.1.15,2013-03-25 02:52:00,
2013-03-24 22:58:00,36.4,26.8,29.66,South,179,3.0,4.0,68,0.00,,,0.00,Wunderground v.1.15,2013-03-25 02:58:00,
2013-03-24 23:03:00,36.2,26.6,29.67,South,169,3.0,5.0,68,0.00,,,0.00,Wunderground v.1.15,2013-03-25 03:03:00,
2013-03-24 23:09:00,36.0,26.5,29.66,SSW,198,3.0,6.0,68,0.00,,,0.00,Wunderground v.1.15,2013-03-25 03:09:00,
2013-03-24 23:15:00,35.8,26.3,29.66,SSW,205,4.0,6.0,68,0.00,,,0.00,Wunderground v.1.15,2013-03-25 03:15:00,
2013-03-24 23:21:00,35.7,26.2,29.67,WSW,248,4.0,8.0,68,0.00,,,0.00,Wunderground v.1.15,2013-03-25 03:21:00,
2013-03-24 23:27:00,35.5,26.0,29.67,SW,229,6.0,10.0,68,0.00,,,0.00,Wunderground v.1.15,2013-03-25 03:27:00,
2013-03-24 23:32:00,35.4,26.2,29.67,SW,217,6.0,9.0,69,0.00,,,0.00,Wunderground v.1.15,2013-03-25 03:32:00,
2013-03-24 23:37:00,35.3,26.1,29.67,SW,232,6.0,9.0,69,0.00,,,0.00,Wunderground v.1.15,2013-03-25 03:37:00,
2013-03-24 23:43:00,35.2,26.4,29.66,SSW,197,6.0,6.0,70,0.00,,,0.00,Wunderground v.1.15,2013-03-25 03:43:00,
2013-03-24 23:49:00,35.1,26.3,29.66,SSE,165,5.0,7.0,70,0.00,,,0.00,Wunderground v.1.15,2013-03-25 03:49:00,
2013-03-24 23:55:00,35.1,26.3,29.66,South,177,4.0,5.0,70,0.00,,,0.00,Wunderground v.1.15,2013-03-25 03:55:00,